Alyeska Resort
Hourly Weather - Mid Mountian Site
ALY_MID_HR 12/4/2016
CLICK TO VIEW GRAPH!!

        DATE  TIME   Air   H2o   H2o   New  Snow  BATT   Rel
                    Temp  Inch Since  Snow Depth  Volt  Hum%
                      F   1HR  0600   1HR         AVG   AVG

   12/4/2016 07:00     5  0.00  0.00   0.1 11.60 13.84    82
   12/4/2016 06:00     5  0.00  0.01   0.1 11.71 13.83    82
   12/4/2016 05:00     6  0.00  0.01   0.1 11.65 13.83    81
   12/4/2016 04:00     6  0.00  0.01   0.2 11.93 13.82    81
   12/4/2016 03:00     7  0.00  0.01   0.1 11.83 13.82    83
   12/4/2016 02:00     7  0.00  0.01   0.2 11.93 13.82    83
   12/4/2016 01:00     6  0.00  0.01   0.2 11.98 13.81    84
   12/3/2016 24:00     7  0.00  0.01   0.2 12.00 13.80    85
   12/3/2016 23:00     8  0.00  0.01   0.2 11.99 13.79    84
   12/3/2016 22:00     8  0.00  0.01   0.1 11.99 13.79    85
   12/3/2016 21:00     8  0.01  0.01   0.1 12.14 13.80    85
   12/3/2016 20:00     8  0.00  0.00   0.1 12.29 13.80    85
   12/3/2016 19:00     8  0.00  0.00   0.1 12.27 13.80    88
   12/3/2016 18:00     8  0.00  0.00   0.1 12.21 13.80    92
   12/3/2016 17:00     9  0.00  0.00  -0.2 11.97 13.79    90
   12/3/2016 16:00    10  0.00  0.00  -0.4199.00 13.78    88
   12/3/2016 15:00     9  0.00  0.00  -0.2199.00 13.78    86
   12/3/2016 14:00    10  0.00  0.00  -0.0199.00 13.78    84
   12/3/2016 13:00     9  0.00  0.00  -0.2199.00 13.79    85
   12/3/2016 12:00     9  0.00  0.00  -0.2 12.25 13.80    88
   12/3/2016 11:00     8  0.00  0.00  -0.0 12.30 13.81    90
   12/3/2016 10:00     8  0.00  0.00  -0.0 12.29 13.81    88
   12/3/2016 09:00     8  0.00  0.00  -0.2 12.30 13.81    88
   12/3/2016 08:00     8  0.00  0.00  -0.2 12.36 13.80    91


CLICK TO VIEW GRAPH!!